Wind_Speed
7 8 13 15 7 13 17 18 21 29 28 26 28 28 27 24 20 20 15 14 15 15 15 15 16 18 20 21 21 20 20 20 23 20 16 13 12 13 13 15 13 16 16
9 14 11 6 12 16 18 18 24 25 22 23 26 25 22 19 17 13 12 10 13 13 15 18 19 20 21 21 19 19 20 19 20 18 14 12 11 11 12 13 15 16 16
13 9 6 8 14 18 17 20 22 18 19 20 22 21 18 17 16 14 11 12 14 16 18 20 21 19 19 18 18 18 17 18 18 18 16 12 12 12 13 15 16 17 20
11 5 6 11 15 16 17 21 17 16 17 21 21 20 16 15 13 13 13 12 14 15 15 16 16 16 15 12 13 14 15 16 17 18 17 16 15 14 14 14 16 16 17
10 8 9 13 13 14 18 17 17 13 16 18 18 17 15 14 14 15 14 15 15 11 9 10 13 9 10 11 11 12 14 15 16 18 18 18 17 19 20 19 18 17 18
12 10 11 10 14 14 19 16 13 13 14 16 17 17 17 15 13 13 13 13 11 8 6 3 3 2 3 5 6 8 11 12 13 14 16 20 23 22 21 21 18 16 15
13 12 12 13 15 14 17 15 15 15 16 16 17 19 18 18 17 14 10 9 6 5 3 3 1 0 2 5 6 7 10 14 17 17 18 15 13 10 9 12 14 14 12
15 15 14 14 16 15 16 15 16 15 16 18 19 19 20 18 18 12 7 6 4 5 4 4 3 4 5 6 7 9 6 7 8 10 10 10 11 6 6 7 9 9 8
16 16 15 14 16 16 17 16 16 16 15 17 18 20 22 21 15 5 2 2 2 1 2 2 3 4 7 9 7 4 2 1 1 2 4 5 6 4 7 7 9 14 14
17 16 15 15 18 17 17 18 16 17 16 17 20 21 23 18 7 5 4 3 5 5 3 2 1 1 2 2 3 2 3 6 7 9 7 5 3 5 8 6 5 12 13
17 18 19 20 20 19 18 20 17 17 15 18 21 21 21 13 4 5 6 6 5 4 5 3 2 4 5 7 8 10 9 9 11 9 8 7 6 5 7 5 3 8 20
18 21 21 20 21 20 20 20 17 17 18 19 21 20 18 6 5 6 6 8 6 3 2 6 7 6 6 6 7 8 8 5 5 5 7 1 2 4 8 8 5 14 16
23 24 22 22 23 22 22 21 19 18 18 19 18 18 16 8 8 8 6 6 10 7 4 4 6 6 6 5 4 4 1 3 4 4 6 2 6 6 11 11 10 9 6
30 29 26 24 24 24 23 23 22 20 18 19 17 16 14 10 13 12 11 8 10 11 8 7 7 7 5 4 2 1 4 2 2 4 6 10 14 15 13 10 12 12 14
33 36 34 28 26 25 24 24 24 22 21 18 17 17 16 13 15 16 14 11 12 12 10 8 10 10 9 6 3 1 1 2 4 5 7 12 15 16 16 17 17 16 20
25 26 30 38 32 28 27 26 25 25 22 23 22 22 20 17 14 20 17 16 15 13 12 12 11 14 12 10 6 5 3 3 8 10 8 10 11 11 13 15 14 16 17
23 22 25 29 34 37 39 39 32 26 24 25 26 25 24 22 18 17 23 22 22 21 19 17 16 16 15 14 9 7 6 5 8 11 10 11 11 10 9 12 12 11 12
22 22 21 21 21 28 35 38 41 44 33 28 28 27 21 20 19 21 22 26 29 29 28 23 20 21 20 17 13 10 8 6 9 12 11 9 9 9 9 11 13 13 11
28 27 28 29 28 25 28 27 31 40 46 43 33 31 30 30 28 28 29 30 31 33 31 31 27 25 25 22 19 15 13 13 12 14 11 11 10 11 10 10 9 10 12
33 32 30 31 32 31 30 27 26 26 35 41 47 42 36 36 36 36 36 35 36 33 34 35 35 32 30 27 23 23 20 20 18 17 15 14 13 12 13 12 11 13 13
30 27 28 31 31 30 31 32 33 33 33 25 36 46 46 42 41 41 39 39 40 38 35 32 36 38 36 33 30 26 26 27 24 20 19 16 16 13 13 13 16 14 12
28 29 31 33 34 34 34 35 36 37 41 42 43 29 23 33 40 43 43 43 41 41 36 34 34 40 40 39 35 32 31 30 31 28 23 20 19 19 14 14 16 16 13
30 31 30 33 36 37 39 37 35 33 36 38 41 45 44 32 23 39 45 43 45 43 41 39 36 35 41 41 41 37 34 35 30 32 30 25 22 21 21 16 18 17 16
30 32 34 37 37 38 41 42 42 40 37 39 38 42 46 50 48 37 28 46 47 48 46 43 39 38 35 42 42 42 38 35 29 30 31 29 24 23 24 22 19 17 19
33 33 35 37 35 32 35 37 41 43 45 41 39 43 45 41 45 53 49 33 49 47 49 50 47 41 38 37 42 45 43 38 34 30 29 30 29 26 24 23 23 22 21
34 34 36 37 40 38 39 42 45 49 47 47 46 46 40 43 41 39 50 53 37 50 50 51 54 49 44 40 39 41 45 41 38 35 31 29 31 28 25 23 23 23 27
Wind_Direction
244 285 308 319 337 348 334 324 330 329 327 331 327 324 324 323 316 313 289 273 284 283 265 265 269 270 272 278 272 264 259 255 257 274 271 266 257 244 245 245 249 246 239
301 312 312 314 342 327 320 324 329 328 333 334 330 323 323 328 332 326 305 278 287 281 275 272 271 273 275 274 265 254 253 249 253 266 272 266 256 251 251 245 244 245 247
308 310 310 319 321 322 322 324 324 329 335 333 335 335 333 335 337 327 304 291 277 280 280 277 277 275 271 269 254 249 244 241 245 258 271 266 263 263 255 259 256 252 251
321 289 308 317 316 324 325 325 328 327 335 334 334 332 344 0 0 344 329 312 297 295 286 276 271 268 270 255 241 243 239 239 244 254 263 267 268 265 263 261 268 263 260
304 277 306 316 320 329 331 329 329 329 329 334 338 330 332 342 354 342 338 325 315 308 290 283 281 256 252 242 245 249 239 237 244 251 260 264 264 266 268 268 269 261 265
305 276 304 307 326 324 334 330 336 339 344 342 345 343 342 333 334 343 330 320 315 303 299 316 90 178 210 226 251 256 241 248 252 248 256 266 274 270 263 258 249 249 260
305 281 291 301 312 311 328 322 326 326 333 337 338 341 338 331 327 337 338 330 307 277 297 283 150 169 269 251 254 260 259 258 257 260 269 267 269 272 251 229 228 242 242
286 283 282 298 303 299 317 321 323 318 327 331 333 336 338 337 324 327 342 331 316 286 262 226 229 270 282 251 273 292 275 262 241 234 251 261 268 255 243 232 231 218 197
285 285 284 289 300 292 305 314 319 312 324 330 336 334 334 334 319 307 80 2 322 292 170 202 244 276 279 275 270 273 269 147 207 257 263 262 270 224 203 212 207 183 164
289 289 290 289 291 293 300 308 307 308 317 321 328 331 332 330 307 109 118 94 119 99 41 357 256 328 297 233 159 97 107 105 90 96 78 62 72 123 140 144 203 179 175
287 283 284 287 286 294 291 307 303 299 309 321 320 328 334 324 191 142 164 152 156 103 70 41 86 99 103 106 102 108 94 88 84 78 63 58 68 132 151 161 214 201 164
284 280 285 291 288 291 288 302 300 291 298 310 317 322 333 309 200 187 178 182 195 170 112 101 106 101 119 115 114 128 114 77 50 21 352 342 77 128 143 149 136 162 190
281 281 289 289 286 287 282 293 291 286 292 301 307 316 329 270 234 219 223 220 207 197 190 176 149 136 132 125 142 164 176 2 12 10 355 29 171 146 132 130 132 154 131
279 279 284 283 289 287 280 285 288 284 284 294 291 304 311 282 241 240 235 216 204 211 207 208 198 182 177 155 146 210 212 212 62 61 82 88 124 132 127 132 129 127 139
293 284 278 281 284 286 281 281 284 282 275 276 280 290 293 297 250 245 245 245 219 210 211 221 214 207 198 191 186 241 239 190 161 128 130 122 119 121 117 118 116 121 124
327 310 285 280 279 284 281 281 282 281 277 262 268 276 281 276 267 240 241 236 224 222 227 225 225 213 212 215 219 232 193 160 166 154 150 157 150 134 132 128 129 129 124
331 338 323 303 285 284 284 282 279 286 274 265 259 269 271 262 259 246 241 241 236 234 233 234 230 222 216 216 215 199 177 166 173 156 152 152 165 166 142 138 148 145 146
331 327 325 322 316 317 297 284 280 278 275 271 256 253 251 248 257 260 247 239 239 239 238 236 233 221 221 217 218 206 203 178 176 181 180 186 173 165 170 161 157 155 158
334 333 332 328 320 309 309 321 296 281 275 272 265 250 247 251 257 251 248 249 243 239 240 240 234 225 223 226 221 223 214 213 202 197 200 194 202 198 193 184 182 177 173
332 331 329 324 320 317 313 306 311 312 291 281 269 264 256 252 251 250 250 253 250 246 240 238 238 234 225 224 226 223 222 219 216 208 207 200 204 212 210 205 189 192 188
345 344 340 335 330 323 318 310 306 301 301 315 282 270 269 264 255 252 254 254 251 246 242 242 238 234 231 226 223 222 221 215 216 217 213 212 208 201 199 200 206 216 227
352 352 352 351 349 346 337 328 322 313 299 298 297 297 288 267 266 263 257 254 247 244 243 242 243 235 228 225 221 222 223 217 216 222 222 218 217 212 211 196 207 219 222
359 355 348 348 346 343 340 333 325 315 311 310 300 287 293 288 292 269 260 259 248 240 239 237 238 236 228 225 224 223 221 218 219 217 219 220 221 215 214 203 202 215 204
352 352 353 351 350 350 347 342 335 323 311 305 300 296 286 279 283 279 280 262 256 243 237 233 232 232 229 226 222 219 217 213 211 212 214 214 216 212 215 214 210 202 205
348 345 345 343 342 332 331 331 334 327 318 307 299 288 291 291 287 271 268 278 252 251 242 234 230 225 226 226 224 219 215 212 211 210 213 211 214 214 215 219 218 214 210
345 344 342 342 338 331 328 326 325 324 316 308 295 291 283 278 287 278 274 266 270 250 246 237 232 225 221 223 222 219 217 215 214 214 210 214 212 211 211 216 218 221 222
Height
1522 1522 1520 1518 1517 1514 1510 1506 1502 1497 1492 1487 1482 1477 1472 1467 1464 1460 1458 1458 1458 1458 1458 1458 1457 1458 1459 1459 1459 1459 1459 1459 1458 1457 1458 1460 1461 1462 1463 1464 1465 1466 1468
1520 1518 1516 1516 1514 1511 1507 1503 1499 1494 1489 1485 1480 1474 1469 1464 1460 1458 1455 1455 1455 1454 1454 1454 1453 1453 1452 1453 1453 1453 1453 1454 1454 1454 1455 1456 1457 1458 1459 1460 1461 1463 1464
1518 1515 1514 1513 1511 1508 1505 1501 1497 1492 1487 1483 1479 1473 1467 1462 1458 1456 1454 1452 1451 1450 1449 1448 1447 1447 1446 1446 1447 1447 1448 1450 1450 1451 1451 1453 1454 1454 1455 1456 1457 1458 1459
1514 1513 1512 1510 1508 1506 1503 1499 1494 1490 1486 1481 1477 1471 1465 1460 1456 1454 1452 1450 1448 1446 1444 1443 1442 1441 1441 1442 1442 1443 1445 1446 1447 1448 1448 1449 1450 1450 1451 1452 1452 1453 1453
1512 1510 1509 1507 1506 1503 1500 1496 1492 1489 1484 1480 1474 1471 1466 1460 1456 1452 1450 1448 1446 1443 1441 1440 1438 1438 1438 1439 1440 1441 1442 1443 1444 1445 1445 1445 1445 1445 1446 1447 1447 1448 1448
1509 1507 1506 1505 1503 1500 1498 1494 1490 1487 1483 1479 1474 1469 1464 1459 1454 1450 1446 1444 1442 1441 1440 1438 1437 1437 1438 1438 1439 1439 1440 1440 1441 1441 1441 1440 1440 1439 1439 1439 1441 1443 1444
1507 1504 1503 1501 1499 1498 1496 1492 1488 1485 1481 1477 1473 1468 1462 1457 1452 1448 1445 1443 1441 1441 1440 1439 1439 1439 1438 1438 1438 1438 1438 1438 1437 1437 1437 1436 1435 1434 1434 1435 1437 1440 1441
1503 1502 1500 1497 1496 1494 1492 1489 1485 1482 1479 1474 1470 1466 1460 1455 1450 1446 1444 1442 1441 1440 1440 1440 1440 1439 1438 1438 1438 1436 1435 1433 1433 1433 1433 1433 1432 1432 1432 1434 1436 1437 1440
1500 1497 1495 1493 1491 1490 1488 1486 1482 1479 1476 1472 1467 1462 1457 1452 1448 1445 1443 1442 1441 1441 1440 1440 1440 1439 1438 1437 1436 1435 1434 1433 1432 1432 1432 1431 1430 1430 1431 1433 1434 1436 1439
1496 1493 1491 1489 1487 1485 1484 1482 1479 1475 1472 1469 1464 1459 1454 1449 1446 1444 1443 1443 1442 1441 1441 1440 1440 1439 1438 1436 1436 1435 1435 1434 1433 1433 1432 1431 1430 1430 1431 1433 1435 1436 1439
1491 1489 1486 1485 1482 1481 1479 1477 1475 1472 1469 1466 1462 1458 1452 1447 1445 1444 1444 1444 1444 1443 1442 1441 1440 1440 1439 1438 1438 1438 1438 1436 1436 1435 1435 1434 1432 1433 1434 1436 1436 1437 1440
1486 1484 1482 1480 1478 1476 1473 1472 1470 1468 1465 1462 1459 1455 1451 1447 1445 1444 1443 1444 1444 1444 1443 1442 1442 1441 1441 1440 1440 1440 1440 1439 1439 1438 1436 1435 1434 1434 1435 1437 1438 1439 1443
1481 1479 1476 1474 1472 1470 1468 1467 1465 1463 1461 1458 1455 1452 1449 1447 1445 1444 1443 1443 1443 1444 1444 1443 1442 1442 1442 1441 1441 1441 1441 1441 1440 1439 1437 1435 1434 1435 1437 1439 1440 1442 1444
1474 1472 1470 1468 1466 1465 1463 1461 1459 1458 1456 1454 1451 1449 1447 1445 1444 1444 1443 1442 1442 1442 1442 1442 1443 1442 1442 1442 1442 1441 1441 1441 1441 1440 1439 1437 1436 1438 1440 1441 1442 1443 1445
1468 1466 1464 1461 1459 1458 1456 1454 1453 1452 1450 1449 1447 1445 1444 1442 1442 1442 1442 1441 1440 1440 1440 1441 1441 1442 1441 1442 1442 1441 1441 1441 1441 1442 1442 1442 1442 1443 1444 1445 1446 1447 1449
1460 1456 1454 1455 1453 1450 1449 1447 1446 1444 1443 1442 1441 1440 1439 1439 1438 1438 1438 1439 1438 1438 1438 1439 1439 1440 1441 1441 1441 1441 1441 1441 1441 1442 1444 1445 1446 1447 1447 1449 1451 1453 1453
1453 1451 1448 1445 1444 1444 1443 1441 1437 1436 1435 1433 1434 1433 1432 1433 1433 1432 1433 1434 1434 1434 1434 1435 1436 1437 1438 1439 1440 1440 1441 1440 1441 1443 1445 1446 1448 1449 1450 1451 1453 1455 1457
1448 1447 1442 1439 1436 1434 1431 1429 1429 1429 1425 1424 1425 1425 1426 1426 1426 1427 1426 1426 1427 1427 1428 1430 1431 1432 1435 1436 1437 1438 1439 1440 1441 1443 1444 1446 1448 1450 1451 1452 1454 1456 1458
1445 1440 1435 1433 1430 1425 1425 1420 1417 1415 1415 1416 1415 1415 1416 1417 1418 1417 1417 1418 1418 1419 1420 1422 1425 1427 1429 1431 1433 1434 1436 1438 1440 1441 1443 1444 1446 1448 1451 1453 1455 1457 1459
1440 1435 1431 1426 1422 1419 1416 1412 1409 1407 1405 1402 1403 1404 1406 1406 1405 1405 1405 1406 1408 1409 1411 1412 1416 1419 1421 1424 1427 1429 1431 1434 1436 1438 1440 1442 1444 1446 1449 1452 1453 1455 1457
1435 1430 1426 1421 1417 1413 1409 1405 1402 1398 1395 1391 1391 1390 1391 1391 1391 1390 1392 1393 1395 1398 1401 1402 1404 1408 1412 1415 1419 1422 1424 1427 1430 1433 1436 1439 1441 1443 1445 1448 1451 1453 1455
1434 1429 1424 1419 1414 1409 1405 1401 1397 1392 1386 1382 1378 1373 1373 1373 1374 1374 1376 1378 1381 1385 1389 1391 1393 1395 1399 1404 1408 1412 1416 1419 1424 1427 1430 1433 1436 1439 1442 1444 1447 1450 1452
1432 1426 1421 1416 1410 1405 1399 1394 1390 1386 1380 1375 1369 1365 1360 1356 1357 1359 1361 1363 1367 1370 1375 1378 1381 1382 1387 1391 1396 1401 1406 1410 1415 1419 1423 1427 1430 1433 1437 1440 1443 1446 1449
1430 1424 1418 1413 1406 1399 1393 1387 1381 1375 1371 1365 1360 1354 1350 1346 1344 1341 1343 1348 1351 1355 1359 1364 1368 1371 1374 1380 1385 1390 1395 1402 1407 1411 1416 1420 1424 1428 1431 1435 1439 1442 1445
1425 1420 1414 1408 1402 1396 1390 1383 1377 1369 1361 1354 1349 1344 1340 1335 1332 1328 1328 1330 1334 1336 1341 1347 1353 1358 1362 1367 1373 1379 1385 1392 1397 1403 1407 1412 1416 1421 1425 1429 1434 1437 1441
1421 1415 1409 1403 1397 1390 1383 1375 1368 1360 1351 1343 1335 1330 1326 1322 1318 1316 1313 1312 1315 1318 1321 1329 1336 1343 1350 1355 1361 1367 1376 1382 1388 1393 1399 1404 1408 1413 1418 1423 1427 1431 1435